owner,sensor,date,latitude,longitude,vertical_datum,wind_speed,wind_to_direction,wind_speed_of_gust,qcFlag 
WAVCIS,ioos:station:WAVCIS:CSI16:1,2009-01-01T00:00:00Z,29.4012,-89.0355,10.0,6.277,11.0,,'11111222,11111222,99999999' 
WAVCIS,ioos:station:WAVCIS:CSI16:1,2009-01-01T01:00:00Z,29.4012,-89.0355,10.0,10.41,18.0,,'11111222,11111222,99999999' 
WAVCIS,ioos:station:WAVCIS:CSI16:1,2009-01-01T02:00:00Z,29.4012,-89.0355,10.0,11.28,20.0,,'11111222,11111222,99999999' 
WAVCIS,ioos:station:WAVCIS:CSI16:1,2009-01-01T03:00:00Z,29.4012,-89.0355,10.0,10.28,22.0,,'11111222,11111222,99999999' 
WAVCIS,ioos:station:WAVCIS:CSI16:1,2009-01-01T04:00:00Z,29.4012,-89.0355,10.0,6.779,31.0,,'11111222,11111222,99999999' 
WAVCIS,ioos:station:WAVCIS:CSI16:1,2009-01-01T05:00:00Z,29.4012,-89.0355,10.0,5.868,33.0,,'11111222,11111222,99999999' 
WAVCIS,ioos:station:WAVCIS:CSI16:1,2009-01-01T06:00:00Z,29.4012,-89.0355,10.0,3.954,45.0,,'11111222,11111222,99999999' 
WAVCIS,ioos:station:WAVCIS:CSI16:1,2009-01-01T07:00:00Z,29.4012,-89.0355,10.0,6.131,53.0,,'11111222,11111222,99999999' 
WAVCIS,ioos:station:WAVCIS:CSI16:1,2009-01-01T08:00:00Z,29.4012,-89.0355,10.0,6.414,56.0,,'11111222,11111222,99999999' 
WAVCIS,ioos:station:WAVCIS:CSI16:1,2009-01-01T09:00:00Z,29.4012,-89.0355,10.0,5.968,58.0,,'11111222,11111222,99999999' 
WAVCIS,ioos:station:WAVCIS:CSI16:1,2009-01-01T10:00:00Z,29.4012,-89.0355,10.0,5.469,67.0,,'11111222,11111222,99999999' 
WAVCIS,ioos:station:WAVCIS:CSI16:1,2009-01-01T11:00:00Z,29.4012,-89.0355,10.0,5.242,81.0,,'11111222,11111222,99999999' 
WAVCIS,ioos:station:WAVCIS:CSI16:1,2009-01-01T12:00:00Z,29.4012,-89.0355,10.0,5.781,80.0,,'11111222,11111222,99999999' 
WAVCIS,ioos:station:WAVCIS:CSI16:1,2009-01-01T13:00:00Z,29.4012,-89.0355,10.0,7.15,100.0,,'11111222,11111222,99999999' 
WAVCIS,ioos:station:WAVCIS:CSI16:1,2009-01-01T14:00:00Z,29.4012,-89.0355,10.0,7.43,104.0,,'11111222,11111222,99999999' 
WAVCIS,ioos:station:WAVCIS:CSI16:1,2009-01-01T15:00:00Z,29.4012,-89.0355,10.0,7.21,122.0,,'11111222,11111222,99999999' 
WAVCIS,ioos:station:WAVCIS:CSI16:1,2009-01-01T16:00:00Z,29.4012,-89.0355,10.0,6.665,136.0,,'11111222,11111222,99999999' 
WAVCIS,ioos:station:WAVCIS:CSI16:1,2009-01-01T17:00:00Z,29.4012,-89.0355,10.0,5.52,132.0,,'11111222,11111222,99999999' 
WAVCIS,ioos:station:WAVCIS:CSI16:1,2009-01-01T18:00:00Z,29.4012,-89.0355,10.0,3.347,135.0,,'11111222,11111222,99999999' 
WAVCIS,ioos:station:WAVCIS:CSI16:1,2009-01-01T19:00:00Z,29.4012,-89.0355,10.0,4.01,136.0,,'11111222,11111222,99999999' 
WAVCIS,ioos:station:WAVCIS:CSI16:1,2009-01-01T20:00:00Z,29.4012,-89.0355,10.0,5.071,131.0,,'11111222,11111222,99999999' 
WAVCIS,ioos:station:WAVCIS:CSI16:1,2009-01-01T21:00:00Z,29.4012,-89.0355,10.0,3.77,142.0,,'11111222,11111222,99999999' 
WAVCIS,ioos:station:WAVCIS:CSI16:1,2009-01-01T22:00:00Z,29.4012,-89.0355,10.0,4.486,146.0,,'11111222,11111222,99999999' 
WAVCIS,ioos:station:WAVCIS:CSI16:1,2009-01-01T23:00:00Z,29.4012,-89.0355,10.0,3.588,153.0,,'11111222,11111222,99999999' 
WAVCIS,ioos:station:WAVCIS:CSI16:1,2009-01-02T00:00:00Z,29.4012,-89.0355,10.0,6.065,140.0,,'11111222,11111222,99999999' 
WAVCIS,ioos:station:WAVCIS:CSI16:1,2009-01-02T01:00:00Z,29.4012,-89.0355,10.0,3.554,164.0,,'11111222,11111222,99999999' 
WAVCIS,ioos:station:WAVCIS:CSI16:1,2009-01-02T02:00:00Z,29.4012,-89.0355,10.0,4.608,141.0,,'11111222,11111222,99999999' 
WAVCIS,ioos:station:WAVCIS:CSI16:1,2009-01-02T03:00:00Z,29.4012,-89.0355,10.0,6.082,130.0,,'11111222,11111222,99999999' 
WAVCIS,ioos:station:WAVCIS:CSI16:1,2009-01-02T04:00:00Z,29.4012,-89.0355,10.0,7.17,140.0,,'11111222,11111222,99999999' 
WAVCIS,ioos:station:WAVCIS:CSI16:1,2009-01-02T05:00:00Z,29.4012,-89.0355,10.0,7.88,160.0,,'11111222,11111222,99999999' 
WAVCIS,ioos:station:WAVCIS:CSI16:1,2009-01-02T06:00:00Z,29.4012,-89.0355,10.0,7.56,158.0,,'11111222,11111222,99999999' 
WAVCIS,ioos:station:WAVCIS:CSI16:1,2009-01-02T07:00:00Z,29.4012,-89.0355,10.0,7.76,158.0,,'11111222,11111222,99999999' 
WAVCIS,ioos:station:WAVCIS:CSI16:1,2009-01-02T08:00:00Z,29.4012,-89.0355,10.0,6.559,159.0,,'11111222,11111222,99999999' 
WAVCIS,ioos:station:WAVCIS:CSI16:1,2009-01-02T09:00:00Z,29.4012,-89.0355,10.0,4.407,169.0,,'11111222,11111222,99999999' 
WAVCIS,ioos:station:WAVCIS:CSI16:1,2009-01-02T10:00:00Z,29.4012,-89.0355,10.0,5.124,199.0,,'11111222,11111222,99999999' 
WAVCIS,ioos:station:WAVCIS:CSI16:1,2009-01-02T11:00:00Z,29.4012,-89.0355,10.0,5.59,202.0,,'11111222,11111222,99999999' 
WAVCIS,ioos:station:WAVCIS:CSI16:1,2009-01-02T12:00:00Z,29.4012,-89.0355,10.0,4.368,200.0,,'11111222,11111222,99999999' 
WAVCIS,ioos:station:WAVCIS:CSI16:1,2009-01-02T13:00:00Z,29.4012,-89.0355,10.0,4.814,180.0,,'11111222,11111222,99999999' 
WAVCIS,ioos:station:WAVCIS:CSI16:1,2009-01-02T14:00:00Z,29.4012,-89.0355,10.0,6.141,182.0,,'11111222,11111222,99999999' 
WAVCIS,ioos:station:WAVCIS:CSI16:1,2009-01-02T15:00:00Z,29.4012,-89.0355,10.0,5.528,213.0,,'11111222,11111222,99999999' 
WAVCIS,ioos:station:WAVCIS:CSI16:1,2009-01-02T16:00:00Z,29.4012,-89.0355,10.0,5.153,197.0,,'11111222,11111222,99999999' 
WAVCIS,ioos:station:WAVCIS:CSI16:1,2009-01-02T17:00:00Z,29.4012,-89.0355,10.0,5.616,213.0,,'11111222,11111222,99999999' 
WAVCIS,ioos:station:WAVCIS:CSI16:1,2009-01-02T18:00:00Z,29.4012,-89.0355,10.0,5.162,195.0,,'11111222,11111222,99999999' 
WAVCIS,ioos:station:WAVCIS:CSI16:1,2009-01-02T19:00:00Z,29.4012,-89.0355,10.0,4.236,180.0,,'11111222,11111222,99999999' 
WAVCIS,ioos:station:WAVCIS:CSI16:1,2009-01-02T20:00:00Z,29.4012,-89.0355,10.0,4.175,200.0,,'11111222,11111222,99999999' 
WAVCIS,ioos:station:WAVCIS:CSI16:1,2009-01-02T21:00:00Z,29.4012,-89.0355,10.0,5.101,207.0,,'11111222,11111222,99999999' 
WAVCIS,ioos:station:WAVCIS:CSI16:1,2009-01-02T22:00:00Z,29.4012,-89.0355,10.0,5.614,214.0,,'11111222,11111222,99999999' 
WAVCIS,ioos:station:WAVCIS:CSI16:1,2009-01-02T23:00:00Z,29.4012,-89.0355,10.0,4.637,201.0,,'11111222,11111222,99999999' 
WAVCIS,ioos:station:WAVCIS:CSI16:1,2009-01-03T00:00:00Z,29.4012,-89.0355,10.0,5.255,189.0,,'11111222,11111222,99999999' 
WAVCIS,ioos:station:WAVCIS:CSI16:1,2009-01-03T01:00:00Z,29.4012,-89.0355,10.0,6.277,201.0,,'11111222,11111222,99999999' 
WAVCIS,ioos:station:WAVCIS:CSI16:1,2009-01-03T02:00:00Z,29.4012,-89.0355,10.0,6.766,206.0,,'11111222,11111222,99999999' 
WAVCIS,ioos:station:WAVCIS:CSI16:1,2009-01-03T03:00:00Z,29.4012,-89.0355,10.0,6.477,203.0,,'11111222,11111222,99999999' 
WAVCIS,ioos:station:WAVCIS:CSI16:1,2009-01-03T04:00:00Z,29.4012,-89.0355,10.0,6.947,205.0,,'11111222,11111222,99999999' 
WAVCIS,ioos:station:WAVCIS:CSI16:1,2009-01-03T05:00:00Z,29.4012,-89.0355,10.0,6.561,200.0,,'11111222,11111222,99999999' 
WAVCIS,ioos:station:WAVCIS:CSI16:1,2009-01-03T06:00:00Z,29.4012,-89.0355,10.0,6.779,199.0,,'11111222,11111222,99999999' 
WAVCIS,ioos:station:WAVCIS:CSI16:1,2009-01-03T07:00:00Z,29.4012,-89.0355,10.0,7.59,196.0,,'11111222,11111222,99999999' 
WAVCIS,ioos:station:WAVCIS:CSI16:1,2009-01-03T08:00:00Z,29.4012,-89.0355,10.0,7.37,193.0,,'11111222,11111222,99999999' 
WAVCIS,ioos:station:WAVCIS:CSI16:1,2009-01-03T09:00:00Z,29.4012,-89.0355,10.0,6.307,183.0,,'11111222,11111222,99999999' 
WAVCIS,ioos:station:WAVCIS:CSI16:1,2009-01-03T10:00:00Z,29.4012,-89.0355,10.0,7.59,182.0,,'11111222,11111222,99999999' 
WAVCIS,ioos:station:WAVCIS:CSI16:1,2009-01-03T11:00:00Z,29.4012,-89.0355,10.0,7.2,183.0,,'11111222,11111222,99999999' 
WAVCIS,ioos:station:WAVCIS:CSI16:1,2009-01-03T12:00:00Z,29.4012,-89.0355,10.0,5.828,174.0,,'11111222,11111222,99999999' 
WAVCIS,ioos:station:WAVCIS:CSI16:1,2009-01-03T13:00:00Z,29.4012,-89.0355,10.0,6.367,161.0,,'11111222,11111222,99999999' 
WAVCIS,ioos:station:WAVCIS:CSI16:1,2009-01-03T14:00:00Z,29.4012,-89.0355,10.0,6.912,160.0,,'11111222,11111222,99999999' 
WAVCIS,ioos:station:WAVCIS:CSI16:1,2009-01-03T15:00:00Z,29.4012,-89.0355,10.0,6.646,160.0,,'11111222,11111222,99999999' 
WAVCIS,ioos:station:WAVCIS:CSI16:1,2009-01-03T16:00:00Z,29.4012,-89.0355,10.0,7.82,170.0,,'11111222,11111222,99999999' 
WAVCIS,ioos:station:WAVCIS:CSI16:1,2009-01-03T17:00:00Z,29.4012,-89.0355,10.0,8.06,167.0,,'11111222,11111222,99999999' 
WAVCIS,ioos:station:WAVCIS:CSI16:1,2009-01-03T18:00:00Z,29.4012,-89.0355,10.0,8.14,168.0,,'11111222,11111222,99999999' 
WAVCIS,ioos:station:WAVCIS:CSI16:1,2009-01-03T19:00:00Z,29.4012,-89.0355,10.0,8.34,171.0,,'11111222,11111222,99999999' 
WAVCIS,ioos:station:WAVCIS:CSI16:1,2009-01-03T20:00:00Z,29.4012,-89.0355,10.0,8.17,176.0,,'11111222,11111222,99999999' 
WAVCIS,ioos:station:WAVCIS:CSI16:1,2009-01-03T21:00:00Z,29.4012,-89.0355,10.0,7.8,171.0,,'11111222,11111222,99999999' 
WAVCIS,ioos:station:WAVCIS:CSI16:1,2009-01-03T22:00:00Z,29.4012,-89.0355,10.0,5.725,188.0,,'11111222,11111222,99999999' 
WAVCIS,ioos:station:WAVCIS:CSI16:1,2009-01-03T23:00:00Z,29.4012,-89.0355,10.0,8.06,177.0,,'11111222,11111222,99999999' 
WAVCIS,ioos:station:WAVCIS:CSI16:1,2009-01-04T00:00:00Z,29.4012,-89.0355,10.0,4.247,158.0,,'11111222,11111222,99999999' 
WAVCIS,ioos:station:WAVCIS:CSI16:1,2009-01-04T01:00:00Z,29.4012,-89.0355,10.0,5.893,148.0,,'11111222,11111222,99999999' 
WAVCIS,ioos:station:WAVCIS:CSI16:1,2009-01-04T02:00:00Z,29.4012,-89.0355,10.0,6.132,127.0,,'11111222,11111222,99999999' 
WAVCIS,ioos:station:WAVCIS:CSI16:1,2009-01-04T03:00:00Z,29.4012,-89.0355,10.0,5.854,136.0,,'11111222,11111222,99999999' 
WAVCIS,ioos:station:WAVCIS:CSI16:1,2009-01-04T04:00:00Z,29.4012,-89.0355,10.0,4.217,163.0,,'11111222,11111222,99999999' 
WAVCIS,ioos:station:WAVCIS:CSI16:1,2009-01-04T05:00:00Z,29.4012,-89.0355,10.0,0.912,206.0,,'11111222,11111222,99999999' 
WAVCIS,ioos:station:WAVCIS:CSI16:1,2009-01-04T06:00:00Z,29.4012,-89.0355,10.0,9.14,26.0,,'11111222,11111222,99999999' 
WAVCIS,ioos:station:WAVCIS:CSI16:1,2009-01-04T07:00:00Z,29.4012,-89.0355,10.0,6.428,27.0,,'11111222,11111222,99999999' 
WAVCIS,ioos:station:WAVCIS:CSI16:1,2009-01-04T08:00:00Z,29.4012,-89.0355,10.0,3.897,53.0,,'11111222,11111222,99999999' 
WAVCIS,ioos:station:WAVCIS:CSI16:1,2009-01-04T09:00:00Z,29.4012,-89.0355,10.0,6.706,94.0,,'11111222,11111222,99999999' 
WAVCIS,ioos:station:WAVCIS:CSI16:1,2009-01-04T10:00:00Z,29.4012,-89.0355,10.0,7.02,115.0,,'11111222,11111222,99999999' 
WAVCIS,ioos:station:WAVCIS:CSI16:1,2009-01-04T11:00:00Z,29.4012,-89.0355,10.0,6.34,119.0,,'11111222,11111222,99999999' 
WAVCIS,ioos:station:WAVCIS:CSI16:1,2009-01-04T12:00:00Z,29.4012,-89.0355,10.0,6.977,122.0,,'11111222,11111222,99999999' 
WAVCIS,ioos:station:WAVCIS:CSI16:1,2009-01-04T13:00:00Z,29.4012,-89.0355,10.0,7.13,124.0,,'11111222,11111222,99999999' 
WAVCIS,ioos:station:WAVCIS:CSI16:1,2009-01-04T14:00:00Z,29.4012,-89.0355,10.0,6.607,116.0,,'11111222,11111222,99999999' 
WAVCIS,ioos:station:WAVCIS:CSI16:1,2009-01-04T15:00:00Z,29.4012,-89.0355,10.0,6.422,130.0,,'11111222,11111222,99999999' 
WAVCIS,ioos:station:WAVCIS:CSI16:1,2009-01-04T16:00:00Z,29.4012,-89.0355,10.0,7.35,132.0,,'11111222,11111222,99999999' 
WAVCIS,ioos:station:WAVCIS:CSI16:1,2009-01-04T17:00:00Z,29.4012,-89.0355,10.0,6.521,136.0,,'11111222,11111222,99999999' 
WAVCIS,ioos:station:WAVCIS:CSI16:1,2009-01-04T18:00:00Z,29.4012,-89.0355,10.0,5.715,139.0,,'11111222,11111222,99999999' 
WAVCIS,ioos:station:WAVCIS:CSI16:1,2009-01-04T19:00:00Z,29.4012,-89.0355,10.0,5.364,144.0,,'11111222,11111222,99999999' 
WAVCIS,ioos:station:WAVCIS:CSI16:1,2009-01-04T20:00:00Z,29.4012,-89.0355,10.0,5.759,150.0,,'11111222,11111222,99999999' 
WAVCIS,ioos:station:WAVCIS:CSI16:1,2009-01-04T21:00:00Z,29.4012,-89.0355,10.0,5.452,158.0,,'11111222,11111222,99999999' 
WAVCIS,ioos:station:WAVCIS:CSI16:1,2009-01-04T22:00:00Z,29.4012,-89.0355,10.0,5.693,173.0,,'11111222,11111222,99999999' 
WAVCIS,ioos:station:WAVCIS:CSI16:1,2009-01-04T23:00:00Z,29.4012,-89.0355,10.0,5.512,176.0,,'11111222,11111222,99999999' 
WAVCIS,ioos:station:WAVCIS:CSI16:1,2009-01-05T00:00:00Z,29.4012,-89.0355,10.0,4.04,166.0,,'11111222,11111222,99999999' 
WAVCIS,ioos:station:WAVCIS:CSI16:1,2009-01-05T01:00:00Z,29.4012,-89.0355,10.0,4.222,152.0,,'11111222,11111222,99999999' 
WAVCIS,ioos:station:WAVCIS:CSI16:1,2009-01-05T02:00:00Z,29.4012,-89.0355,10.0,4.991,155.0,,'11111222,11111222,99999999' 
WAVCIS,ioos:station:WAVCIS:CSI16:1,2009-01-05T03:00:00Z,29.4012,-89.0355,10.0,4.518,156.0,,'11111222,11111222,99999999' 
WAVCIS,ioos:station:WAVCIS:CSI16:1,2009-01-05T04:00:00Z,29.4012,-89.0355,10.0,4.068,164.0,,'11111222,11111222,99999999' 
WAVCIS,ioos:station:WAVCIS:CSI16:1,2009-01-05T05:00:00Z,29.4012,-89.0355,10.0,5.695,162.0,,'11111222,11111222,99999999' 
WAVCIS,ioos:station:WAVCIS:CSI16:1,2009-01-05T06:00:00Z,29.4012,-89.0355,10.0,5.244,168.0,,'11111222,11111222,99999999' 
WAVCIS,ioos:station:WAVCIS:CSI16:1,2009-01-05T07:00:00Z,29.4012,-89.0355,10.0,4.313,176.0,,'11111222,11111222,99999999' 
WAVCIS,ioos:station:WAVCIS:CSI16:1,2009-01-05T08:00:00Z,29.4012,-89.0355,10.0,3.655,174.0,,'11111222,11111222,99999999' 
WAVCIS,ioos:station:WAVCIS:CSI16:1,2009-01-05T09:00:00Z,29.4012,-89.0355,10.0,3.769,177.0,,'11111222,11111222,99999999' 
WAVCIS,ioos:station:WAVCIS:CSI16:1,2009-01-05T10:00:00Z,29.4012,-89.0355,10.0,3.535,164.0,,'11111222,11111222,99999999' 
WAVCIS,ioos:station:WAVCIS:CSI16:1,2009-01-05T11:00:00Z,29.4012,-89.0355,10.0,4.258,155.0,,'11111222,11111222,99999999' 
WAVCIS,ioos:station:WAVCIS:CSI16:1,2009-01-05T12:00:00Z,29.4012,-89.0355,10.0,5.921,164.0,,'11111222,11111222,99999999' 
WAVCIS,ioos:station:WAVCIS:CSI16:1,2009-01-05T13:00:00Z,29.4012,-89.0355,10.0,6.674,161.0,,'11111222,11111222,99999999' 
WAVCIS,ioos:station:WAVCIS:CSI16:1,2009-01-05T14:00:00Z,29.4012,-89.0355,10.0,7.61,171.0,,'11111222,11111222,99999999' 
WAVCIS,ioos:station:WAVCIS:CSI16:1,2009-01-05T15:00:00Z,29.4012,-89.0355,10.0,6.877,171.0,,'11111222,11111222,99999999' 
WAVCIS,ioos:station:WAVCIS:CSI16:1,2009-01-05T16:00:00Z,29.4012,-89.0355,10.0,6.243,172.0,,'11111222,11111222,99999999' 
WAVCIS,ioos:station:WAVCIS:CSI16:1,2009-01-05T17:00:00Z,29.4012,-89.0355,10.0,6.704,174.0,,'11111222,11111222,99999999' 
WAVCIS,ioos:station:WAVCIS:CSI16:1,2009-01-05T18:00:00Z,29.4012,-89.0355,10.0,4.342,174.0,,'11111222,11111222,99999999' 
WAVCIS,ioos:station:WAVCIS:CSI16:1,2009-01-05T19:00:00Z,29.4012,-89.0355,10.0,6.581,187.0,,'11111222,11111222,99999999' 
WAVCIS,ioos:station:WAVCIS:CSI16:1,2009-01-05T20:00:00Z,29.4012,-89.0355,10.0,4.573,182.0,,'11111222,11111222,99999999' 
WAVCIS,ioos:station:WAVCIS:CSI16:1,2009-01-05T21:00:00Z,29.4012,-89.0355,10.0,6.501,184.0,,'11111222,11111222,99999999' 
WAVCIS,ioos:station:WAVCIS:CSI16:1,2009-01-05T22:00:00Z,29.4012,-89.0355,10.0,7.38,181.0,,'11111222,11111222,99999999' 
WAVCIS,ioos:station:WAVCIS:CSI16:1,2009-01-05T23:00:00Z,29.4012,-89.0355,10.0,7.26,184.0,,'11111222,11111222,99999999' 
WAVCIS,ioos:station:WAVCIS:CSI16:1,2009-01-06T00:00:00Z,29.4012,-89.0355,10.0,6.69,180.0,,'11111222,11111222,99999999' 
WAVCIS,ioos:station:WAVCIS:CSI16:1,2009-01-06T01:00:00Z,29.4012,-89.0355,10.0,7.16,183.0,,'11111222,11111222,99999999' 
WAVCIS,ioos:station:WAVCIS:CSI16:1,2009-01-06T02:00:00Z,29.4012,-89.0355,10.0,7.6,182.0,,'11111222,11111222,99999999' 
WAVCIS,ioos:station:WAVCIS:CSI16:1,2009-01-06T03:00:00Z,29.4012,-89.0355,10.0,9.02,195.0,,'11111222,11111222,99999999' 
WAVCIS,ioos:station:WAVCIS:CSI16:1,2009-01-06T04:00:00Z,29.4012,-89.0355,10.0,8.94,196.0,,'11111222,11111222,99999999' 
WAVCIS,ioos:station:WAVCIS:CSI16:1,2009-01-06T05:00:00Z,29.4012,-89.0355,10.0,8.66,204.0,,'11111222,11111222,99999999' 
WAVCIS,ioos:station:WAVCIS:CSI16:1,2009-01-06T06:00:00Z,29.4012,-89.0355,10.0,8.97,190.0,,'11111222,11111222,99999999' 
WAVCIS,ioos:station:WAVCIS:CSI16:1,2009-01-06T07:00:00Z,29.4012,-89.0355,10.0,9.06,198.0,,'11111222,11111222,99999999' 
WAVCIS,ioos:station:WAVCIS:CSI16:1,2009-01-06T08:00:00Z,29.4012,-89.0355,10.0,9.68,192.0,,'11111222,11111222,99999999' 
WAVCIS,ioos:station:WAVCIS:CSI16:1,2009-01-06T09:00:00Z,29.4012,-89.0355,10.0,9.82,184.0,,'11111222,11111222,99999999' 
WAVCIS,ioos:station:WAVCIS:CSI16:1,2009-01-06T10:00:00Z,29.4012,-89.0355,10.0,10.58,179.0,,'11111222,11111222,99999999' 
WAVCIS,ioos:station:WAVCIS:CSI16:1,2009-01-06T11:00:00Z,29.4012,-89.0355,10.0,8.79,180.0,,'11111222,11111222,99999999' 
WAVCIS,ioos:station:WAVCIS:CSI16:1,2009-01-06T12:00:00Z,29.4012,-89.0355,10.0,8.28,182.0,,'11111222,11111222,99999999' 
WAVCIS,ioos:station:WAVCIS:CSI16:1,2009-01-06T13:00:00Z,29.4012,-89.0355,10.0,10.84,189.0,,'11111222,11111222,99999999' 
WAVCIS,ioos:station:WAVCIS:CSI16:1,2009-01-06T14:00:00Z,29.4012,-89.0355,10.0,9.55,182.0,,'11111222,11111222,99999999' 
WAVCIS,ioos:station:WAVCIS:CSI16:1,2009-01-06T15:00:00Z,29.4012,-89.0355,10.0,10.48,184.0,,'11111222,11111222,99999999' 
WAVCIS,ioos:station:WAVCIS:CSI16:1,2009-01-06T16:00:00Z,29.4012,-89.0355,10.0,9.87,177.0,,'11111222,11111222,99999999' 
WAVCIS,ioos:station:WAVCIS:CSI16:1,2009-01-06T17:00:00Z,29.4012,-89.0355,10.0,9.02,196.0,,'11111222,11111222,99999999' 
WAVCIS,ioos:station:WAVCIS:CSI16:1,2009-01-06T18:00:00Z,29.4012,-89.0355,10.0,8.55,188.0,,'11111222,11111222,99999999' 
WAVCIS,ioos:station:WAVCIS:CSI16:1,2009-01-06T19:00:00Z,29.4012,-89.0355,10.0,8.99,192.0,,'11111222,11111222,99999999' 
WAVCIS,ioos:station:WAVCIS:CSI16:1,2009-01-06T20:00:00Z,29.4012,-89.0355,10.0,8.99,195.0,,'11111222,11111222,99999999' 
WAVCIS,ioos:station:WAVCIS:CSI16:1,2009-01-06T21:00:00Z,29.4012,-89.0355,10.0,8.54,200.0,,'11111222,11111222,99999999' 
WAVCIS,ioos:station:WAVCIS:CSI16:1,2009-01-06T22:00:00Z,29.4012,-89.0355,10.0,8.36,205.0,,'11111222,11111222,99999999' 
WAVCIS,ioos:station:WAVCIS:CSI16:1,2009-01-06T23:00:00Z,29.4012,-89.0355,10.0,8.86,208.0,,'11111222,11111222,99999999' 
WAVCIS,ioos:station:WAVCIS:CSI16:1,2009-01-07T00:00:00Z,29.4012,-89.0355,10.0,10.59,189.0,,'11111222,11111222,99999999' 
WAVCIS,ioos:station:WAVCIS:CSI16:1,2009-01-07T01:00:00Z,29.4012,-89.0355,10.0,10.94,194.0,,'11111222,11111222,99999999' 
WAVCIS,ioos:station:WAVCIS:CSI16:1,2009-01-07T02:00:00Z,29.4012,-89.0355,10.0,11.19,194.0,,'11111222,11111222,99999999' 
WAVCIS,ioos:station:WAVCIS:CSI16:1,2009-01-07T03:00:00Z,29.4012,-89.0355,10.0,12.56,192.0,,'11111222,11111222,99999999' 
WAVCIS,ioos:station:WAVCIS:CSI16:1,2009-01-07T04:00:00Z,29.4012,-89.0355,10.0,5.081,287.0,,'11111222,11111222,99999999' 
WAVCIS,ioos:station:WAVCIS:CSI16:1,2009-01-07T05:00:00Z,29.4012,-89.0355,10.0,7.35,284.0,,'11111222,11111222,99999999' 
WAVCIS,ioos:station:WAVCIS:CSI16:1,2009-01-07T06:00:00Z,29.4012,-89.0355,10.0,5.719,272.0,,'11111222,11111222,99999999' 
WAVCIS,ioos:station:WAVCIS:CSI16:1,2009-01-07T07:00:00Z,29.4012,-89.0355,10.0,7.35,262.0,,'11111222,11111222,99999999' 
WAVCIS,ioos:station:WAVCIS:CSI16:1,2009-01-07T08:00:00Z,29.4012,-89.0355,10.0,8.08,268.0,,'11111222,11111222,99999999' 
WAVCIS,ioos:station:WAVCIS:CSI16:1,2009-01-07T09:00:00Z,29.4012,-89.0355,10.0,7.67,252.0,,'11111222,11111222,99999999' 
WAVCIS,ioos:station:WAVCIS:CSI16:1,2009-01-07T10:00:00Z,29.4012,-89.0355,10.0,6.939,254.0,,'11111222,11111222,99999999' 
WAVCIS,ioos:station:WAVCIS:CSI16:1,2009-01-07T11:00:00Z,29.4012,-89.0355,10.0,10.98,273.0,,'11111222,11111222,99999999' 
WAVCIS,ioos:station:WAVCIS:CSI16:1,2009-01-07T12:00:00Z,29.4012,-89.0355,10.0,12.28,269.0,,'11111222,11111222,99999999' 
WAVCIS,ioos:station:WAVCIS:CSI16:1,2009-01-07T13:00:00Z,29.4012,-89.0355,10.0,12.15,275.0,,'11111222,11111222,99999999' 
WAVCIS,ioos:station:WAVCIS:CSI16:1,2009-01-07T14:00:00Z,29.4012,-89.0355,10.0,10.73,303.0,,'11111222,11111222,99999999' 
WAVCIS,ioos:station:WAVCIS:CSI16:1,2009-01-07T15:00:00Z,29.4012,-89.0355,10.0,11.39,315.0,,'11111222,11111222,99999999' 
WAVCIS,ioos:station:WAVCIS:CSI16:1,2009-01-07T16:00:00Z,29.4012,-89.0355,10.0,8.68,313.0,,'11111222,11111222,99999999' 
WAVCIS,ioos:station:WAVCIS:CSI16:1,2009-01-07T17:00:00Z,29.4012,-89.0355,10.0,9.38,323.0,,'11111222,11111222,99999999' 
WAVCIS,ioos:station:WAVCIS:CSI16:1,2009-01-07T18:00:00Z,29.4012,-89.0355,10.0,6.731,337.0,,'11111222,11111222,99999999' 
WAVCIS,ioos:station:WAVCIS:CSI16:1,2009-01-07T19:00:00Z,29.4012,-89.0355,10.0,5.558,326.0,,'11111222,11111222,99999999' 
WAVCIS,ioos:station:WAVCIS:CSI16:1,2009-01-07T20:00:00Z,29.4012,-89.0355,10.0,4.948,333.0,,'11111222,11111222,99999999' 
WAVCIS,ioos:station:WAVCIS:CSI16:1,2009-01-07T21:00:00Z,29.4012,-89.0355,10.0,4.583,322.0,,'11111222,11111222,99999999' 
WAVCIS,ioos:station:WAVCIS:CSI16:1,2009-01-07T22:00:00Z,29.4012,-89.0355,10.0,4.775,327.0,,'11111222,11111222,99999999' 
WAVCIS,ioos:station:WAVCIS:CSI16:1,2009-01-07T23:00:00Z,29.4012,-89.0355,10.0,6.641,249.0,,'11111222,11111222,99999999' 
WAVCIS,ioos:station:WAVCIS:CSI16:1,2009-01-08T00:00:00Z,29.4012,-89.0355,10.0,6.997,231.0,,'11111222,11111222,99999999' 
WAVCIS,ioos:station:WAVCIS:CSI16:1,2009-01-08T01:00:00Z,29.4012,-89.0355,10.0,8.73,221.0,,'11111222,11111222,99999999' 
WAVCIS,ioos:station:WAVCIS:CSI16:1,2009-01-08T02:00:00Z,29.4012,-89.0355,10.0,9.5,229.0,,'11111222,11111222,99999999' 
WAVCIS,ioos:station:WAVCIS:CSI16:1,2009-01-08T03:00:00Z,29.4012,-89.0355,10.0,8.38,226.0,,'11111222,11111222,99999999' 
WAVCIS,ioos:station:WAVCIS:CSI16:1,2009-01-08T04:00:00Z,29.4012,-89.0355,10.0,7.13,231.0,,'11111222,11111222,99999999' 
WAVCIS,ioos:station:WAVCIS:CSI16:1,2009-01-08T05:00:00Z,29.4012,-89.0355,10.0,7.27,228.0,,'11111222,11111222,99999999' 
WAVCIS,ioos:station:WAVCIS:CSI16:1,2009-01-08T06:00:00Z,29.4012,-89.0355,10.0,7.3,239.0,,'11111222,11111222,99999999' 
WAVCIS,ioos:station:WAVCIS:CSI16:1,2009-01-08T07:00:00Z,29.4012,-89.0355,10.0,7.22,232.0,,'11111222,11111222,99999999' 
WAVCIS,ioos:station:WAVCIS:CSI16:1,2009-01-08T08:00:00Z,29.4012,-89.0355,10.0,6.704,239.0,,'11111222,11111222,99999999' 
WAVCIS,ioos:station:WAVCIS:CSI16:1,2009-01-08T09:00:00Z,29.4012,-89.0355,10.0,8.17,241.0,,'11111222,11111222,99999999' 
WAVCIS,ioos:station:WAVCIS:CSI16:1,2009-01-08T10:00:00Z,29.4012,-89.0355,10.0,7.21,228.0,,'11111222,11111222,99999999' 
WAVCIS,ioos:station:WAVCIS:CSI16:1,2009-01-08T11:00:00Z,29.4012,-89.0355,10.0,6.97,236.0,,'11111222,11111222,99999999' 
WAVCIS,ioos:station:WAVCIS:CSI16:1,2009-01-08T12:00:00Z,29.4012,-89.0355,10.0,5.388,239.0,,'11111222,11111222,99999999' 
WAVCIS,ioos:station:WAVCIS:CSI16:1,2009-01-08T13:00:00Z,29.4012,-89.0355,10.0,5.514,238.0,,'11111222,11111222,99999999' 
WAVCIS,ioos:station:WAVCIS:CSI16:1,2009-01-08T14:00:00Z,29.4012,-89.0355,10.0,5.661,239.0,,'11111222,11111222,99999999' 
WAVCIS,ioos:station:WAVCIS:CSI16:1,2009-01-08T15:00:00Z,29.4012,-89.0355,10.0,5.671,238.0,,'11111222,11111222,99999999' 
WAVCIS,ioos:station:WAVCIS:CSI16:1,2009-01-08T16:00:00Z,29.4012,-89.0355,10.0,5.976,239.0,,'11111222,11111222,99999999' 
WAVCIS,ioos:station:WAVCIS:CSI16:1,2009-01-08T17:00:00Z,29.4012,-89.0355,10.0,6.513,255.0,,'11111222,11111222,99999999' 
WAVCIS,ioos:station:WAVCIS:CSI16:1,2009-01-08T18:00:00Z,29.4012,-89.0355,10.0,7.97,259.0,,'11111222,11111222,99999999' 
WAVCIS,ioos:station:WAVCIS:CSI16:1,2009-01-08T19:00:00Z,29.4012,-89.0355,10.0,7.28,266.0,,'11111222,11111222,99999999' 
WAVCIS,ioos:station:WAVCIS:CSI16:1,2009-01-08T20:00:00Z,29.4012,-89.0355,10.0,6.707,261.0,,'11111222,11111222,99999999' 
WAVCIS,ioos:station:WAVCIS:CSI16:1,2009-01-08T21:00:00Z,29.4012,-89.0355,10.0,6.845,251.0,,'11111222,11111222,99999999' 
WAVCIS,ioos:station:WAVCIS:CSI16:1,2009-01-08T22:00:00Z,29.4012,-89.0355,10.0,6.051,261.0,,'11111222,11111222,99999999' 
WAVCIS,ioos:station:WAVCIS:CSI16:1,2009-01-08T23:00:00Z,29.4012,-89.0355,10.0,5.293,264.0,,'11111222,11111222,99999999' 
WAVCIS,ioos:station:WAVCIS:CSI16:1,2009-01-09T00:00:00Z,29.4012,-89.0355,10.0,3.768,239.0,,'11111222,11111222,99999999' 
WAVCIS,ioos:station:WAVCIS:CSI16:1,2009-01-09T01:00:00Z,29.4012,-89.0355,10.0,2.771,243.0,,'11111222,11111222,99999999' 
WAVCIS,ioos:station:WAVCIS:CSI16:1,2009-01-09T02:00:00Z,29.4012,-89.0355,10.0,3.981,231.0,,'11111222,11111222,99999999' 
WAVCIS,ioos:station:WAVCIS:CSI16:1,2009-01-09T03:00:00Z,29.4012,-89.0355,10.0,3.606,236.0,,'11111222,11111222,99999999' 
WAVCIS,ioos:station:WAVCIS:CSI16:1,2009-01-09T04:00:00Z,29.4012,-89.0355,10.0,3.977,225.0,,'11111222,11111222,99999999' 
WAVCIS,ioos:station:WAVCIS:CSI16:1,2009-01-09T05:00:00Z,29.4012,-89.0355,10.0,3.853,239.0,,'11111222,11111222,99999999' 